Flag for France Weather past 2 weeks in Nîmes, France

63 °F

Passing clouds.

Feels Like: 63 °F
Forecast: 55 / 70 °F
Wind: 5 mph from Northwest

Location: Nimes / Garons

Current Time: Oct 7, 2015 at 12:45:30 AM

Latest Report: Oct 6, 2015 at 11:30 PM

Visibility: N/A

Pressure: 29.89 "Hg

Humidity: 77%

Dew point: 55 °F

Location of NîmesLocation

Historic Weather in Nîmes — Graph


Nîmes temperature yesterday

Maximum temperature yesterday: 73 °F (at 2:00 PM)
Minimum temperature yesterday: 57 °F (at 10:00 PM)
Average temperature yesterday: 67 °F

Past Weeks' High & Low Weather Summary

High77 °F (Sep 27, 3:30 PM)100% (Oct 3, 12:00 PM)30.24 "Hg (Oct 3, 12:00 PM)
Low45 °F (Oct 4, 5:00 AM)31% (Sep 30, 3:30 PM)29.74 "Hg (Oct 6, 7:30 AM)
Average62 °F67%30.03 "Hg
* Reported Sep 21 11:00 PM — Oct 6 11:00 PM, Nîmes, Weather by CustomWeather, © 2015

Note: Actual official high and low records may vary slightly from our data, if they occured in-between our weather recording intervals... More about our weather records


Nîmes weather history for previous 24 hours

Time TempWeatherWind HumidityBarometerVisibility
11:00 PM
Tue, Oct 6
59 °FClear.3 mph88%29.89 "Hg10 mi
10:30 PM59 °FClear.5 mph88%29.86 "Hg10 mi
10:00 PM57 °FClear.1 mph88%29.83 "Hg10 mi
9:30 PM59 °FThundershowers. Overcast.5 mph88%29.83 "HgN/A
9:00 PM59 °FStrong thunderstorms. Fog.13 mph88%29.83 "Hg3 mi
8:30 PM66 °FThunderstorms. Overcast.6 mph94%29.83 "Hg5 mi
8:00 PM66 °FMild.3 mph94%29.80 "Hg6 mi
7:30 PM68 °FPassing clouds.5 mph88%29.80 "HgN/A
7:00 PM68 °FPassing clouds.5 mph88%29.77 "HgN/A
6:30 PM70 °FPassing clouds.6 mph83%29.77 "HgN/A
6:00 PM70 °FPassing clouds.6 mph83%29.77 "HgN/A
5:30 PM72 °FBroken clouds.7 mph78%29.74 "HgN/A
5:00 PM72 °FPartly sunny.7 mph78%29.74 "HgN/A
4:30 PM73 °FPartly sunny.5 mph74%29.74 "HgN/A
4:00 PM73 °FPartly sunny.5 mph74%29.77 "HgN/A
3:30 PM73 °FMostly cloudy.3 mph74%29.77 "HgN/A
3:00 PM73 °FMostly cloudy.5 mph74%29.77 "HgN/A
2:30 PM72 °FPartly sunny.6 mph73%29.77 "HgN/A
2:00 PM73 °FBroken clouds.10 mph74%29.77 "HgN/A
1:30 PM72 °FPartly sunny.3 mph78%29.77 "HgN/A
1:00 PM70 °FOvercast.3 mph78%29.80 "HgN/A
12:30 PM70 °FMostly cloudy.2 mph78%29.80 "HgN/A
12:00 PM70 °FMostly cloudy.3 mph73%29.77 "HgN/A
11:30 AM68 °FMostly cloudy.3 mph78%29.77 "HgN/A
11:00 AM68 °FPartly sunny.5 mph78%29.77 "HgN/A
10:30 AM68 °FPartly sunny.5 mph78%29.77 "HgN/A
10:00 AM66 °FOvercast.3 mph88%29.77 "HgN/A
9:30 AM66 °FMostly cloudy.2 mph88%29.77 "HgN/A
9:00 AM64 °FMostly cloudy.2 mph88%29.77 "HgN/A
8:30 AM64 °FPassing clouds.5 mph88%29.77 "HgN/A
8:00 AM64 °FOvercast.5 mph88%29.74 "HgN/A
7:30 AM64 °FOvercast.5 mph88%29.74 "HgN/A
7:00 AM64 °FOvercast.3 mph88%29.77 "HgN/A
6:30 AM64 °FOvercast.2 mph88%29.77 "HgN/A
6:00 AM64 °FOvercast.3 mph88%29.77 "HgN/A
5:30 AM64 °FOvercast.2 mph88%29.77 "HgN/A
5:00 AM64 °FMostly cloudy.3 mph88%29.77 "HgN/A
4:30 AM64 °FMostly cloudy.3 mph88%29.80 "HgN/A
4:00 AM64 °FMostly cloudy.3 mph88%29.80 "HgN/A
3:30 AM64 °FMostly cloudy.5 mph88%29.80 "HgN/A
3:00 AM64 °FOvercast.6 mph94%29.80 "Hg5 mi
2:30 AM64 °FOvercast.3 mph94%29.83 "Hg4 mi
2:00 AM66 °FOvercast.3 mph94%29.83 "Hg4 mi
1:30 AM66 °FOvercast.5 mph94%29.83 "Hg4 mi
1:00 AM66 °FOvercast.5 mph94%29.83 "Hg4 mi
12:30 AM66 °FMostly cloudy.2 mph94%29.86 "Hg4 mi
Weather by CustomWeather, © 2015

See weather overviewHow to use our weather pages